NORTHEAST SUFFOLK  -  Winter Weather Advisory Winter Weather Advisory     Winter Weather Advisory Winter Weather Advisory        NORTHERN NASSAU  -  Winter Weather Advisory Winter Weather Advisory        NORTHERN QUEENS  -  Winter Weather Advisory Winter Weather Advisory        NORTHWEST SUFFOLK  -  Winter Weather Advisory Winter Weather Advisory     Winter Weather Advisory Winter Weather Advisory        SOUTHEAST SUFFOLK  -  Winter Weather Advisory Winter Weather Advisory     Winter Weather Advisory Winter Weather Advisory        SOUTHERN NASSAU  -  Winter Weather Advisory Winter Weather Advisory        SOUTHERN QUEENS  -  Winter Weather Advisory Winter Weather Advisory        SOUTHWEST SUFFOLK  -  Winter Weather Advisory Winter Weather Advisory     Winter Weather Advisory Winter Weather Advisory      

Active alerts

Northern Queens
  Details for Northern Queens Winter Weather Advisory
Southern Queens
  Details for Southern Queens Winter Weather Advisory
Northern Nassau
  Details for Northern Nassau Winter Weather Advisory
Southern Nassau
  Details for Southern Nassau Winter Weather Advisory
Northwest Suffolk
  Details for Northwest Suffolk Winter Weather Advisory  +1 additional alert
Southwest Suffolk
  Details for Southwest Suffolk Winter Weather Advisory  +1 additional alert
Northeast Suffolk
  Details for Northeast Suffolk Winter Weather Advisory  +1 additional alert
Southeast Suffolk
  Details for Southeast Suffolk Winter Weather Advisory  +1 additional alert


WXM80 ListenWXM80 Stop

You find our weather info also at:

UK Metoffice

WeatherCloud

Weather Underground

Northeastern Weather Network

AWEKAS

Citizen Weather Observer Program (CWOP)

HAMweather, WeatherForYou, PWS Weather


Weather Underground History page Text

Daily Summary for January 27, 2017 Units:  English    Metric   Both
« Previous Day
Next Day »
Daily Weekly Monthly Yearly Custom
  High: Low: Average:
Temperature: 44.1 °F 38.0 °F 41.1 °F
Dew Point: 32.1 °F 25.1 °F 29.2 °F
Humidity: 70 % 47 % 63 %
Wind Speed: 12.4 mph 1.5 mph 6.9 mph
Wind Gust: 23.0 mph - -
Wind:- - WSW
Pressure: 29.62 in 29.52 in -
Precipitation: 0.00 in    
Historical Graphs
 
 
Tabular Data for January 27, 2017
Time Temperature Dew Point Pressure Wind Wind Speed Wind Gust Humidity Rainfall Rate (Hourly)
00:03 42.1 °F 31.9 °F 29.52 in WSW 9.0 mph 14.0 mph 67 % 0.00 in
00:08 42.0 °F 31.8 °F 29.52 in WNW 10.4 mph 19.6 mph 67 % 0.00 in
00:13 42.0 °F 31.8 °F 29.52 in WSW 9.9 mph 16.1 mph 67 % 0.00 in
00:18 42.0 °F 31.8 °F 29.52 in NW 7.0 mph 16.1 mph 67 % 0.00 in
00:23 42.0 °F 31.5 °F 29.52 in West 6.1 mph 11.5 mph 66 % 0.00 in
00:28 42.0 °F 31.5 °F 29.53 in WSW 7.4 mph 12.0 mph 66 % 0.00 in
00:33 42.0 °F 31.5 °F 29.53 in West 6.8 mph 13.8 mph 66 % 0.00 in
00:38 41.9 °F 31.4 °F 29.53 in West 8.9 mph 18.4 mph 66 % 0.00 in
00:49 41.9 °F 31.4 °F 29.53 in West 6.2 mph 11.5 mph 66 % 0.00 in
00:54 41.8 °F 31.3 °F 29.53 in West 9.0 mph 16.0 mph 66 % 0.00 in
00:59 41.8 °F 31.3 °F 29.54 in WSW 3.8 mph 11.5 mph 66 % 0.00 in
01:04 41.9 °F 31.4 °F 29.55 in WNW 6.2 mph 10.4 mph 66 % 0.00 in
01:09 41.9 °F 31.4 °F 29.54 in West 5.6 mph 15.0 mph 66 % 0.00 in
01:14 42.0 °F 31.5 °F 29.55 in WSW 7.2 mph 11.5 mph 66 % 0.00 in
01:19 42.1 °F 31.2 °F 29.55 in WSW 6.0 mph 9.2 mph 65 % 0.00 in
01:24 42.2 °F 31.3 °F 29.55 in WSW 6.7 mph 11.0 mph 65 % 0.00 in
01:29 42.3 °F 31.7 °F 29.55 in WSW 7.0 mph 10.4 mph 66 % 0.00 in
01:34 42.3 °F 31.7 °F 29.55 in WSW 5.0 mph 11.0 mph 66 % 0.00 in
01:39 42.2 °F 31.6 °F 29.55 in West 7.0 mph 10.4 mph 66 % 0.00 in
01:44 42.0 °F 31.5 °F 29.55 in West 6.1 mph 13.8 mph 66 % 0.00 in
01:49 41.9 °F 31.0 °F 29.55 in WSW 7.8 mph 13.0 mph 65 % 0.00 in
01:55 41.7 °F 30.8 °F 29.55 in WSW 6.6 mph 13.0 mph 65 % 0.00 in
02:00 41.6 °F 30.7 °F 29.55 in WSW 6.7 mph 10.4 mph 65 % 0.00 in
02:05 41.4 °F 30.9 °F 29.55 in SW 6.4 mph 9.0 mph 66 % 0.00 in
02:10 41.3 °F 30.8 °F 29.55 in SW 2.9 mph 10.4 mph 66 % 0.00 in
02:15 41.2 °F 30.7 °F 29.55 in West 8.3 mph 15.0 mph 66 % 0.00 in
02:20 41.2 °F 31.1 °F 29.56 in WSW 4.1 mph 8.1 mph 67 % 0.00 in
02:25 41.1 °F 31.0 °F 29.56 in WSW 4.4 mph 13.0 mph 67 % 0.00 in
02:30 41.1 °F 31.0 °F 29.56 in WSW 9.0 mph 15.0 mph 67 % 0.00 in
02:35 41.1 °F 31.0 °F 29.56 in West 5.4 mph 12.7 mph 67 % 0.00 in
02:40 41.1 °F 31.0 °F 29.56 in SW 9.5 mph 13.8 mph 67 % 0.00 in
02:45 41.0 °F 30.9 °F 29.55 in West 8.2 mph 11.5 mph 67 % 0.00 in
02:50 41.0 °F 30.9 °F 29.56 in WSW 8.3 mph 11.5 mph 67 % 0.00 in
02:55 41.0 °F 30.9 °F 29.56 in SW 6.6 mph 11.5 mph 67 % 0.00 in
03:00 41.0 °F 30.9 °F 29.56 in WSW 4.9 mph 11.5 mph 67 % 0.00 in
03:06 40.9 °F 30.8 °F 29.56 in SW 5.4 mph 13.8 mph 67 % 0.00 in
03:11 40.9 °F 30.8 °F 29.56 in SW 5.9 mph 9.2 mph 67 % 0.00 in
03:16 40.9 °F 30.8 °F 29.56 in SSW 6.2 mph 19.6 mph 67 % 0.00 in
03:21 40.9 °F 30.8 °F 29.56 in WSW 8.2 mph 13.8 mph 67 % 0.00 in
03:26 40.9 °F 30.8 °F 29.57 in West 6.8 mph 17.3 mph 67 % 0.00 in
03:31 40.9 °F 31.1 °F 29.56 in SW 5.2 mph 9.2 mph 68 % 0.00 in
03:36 40.8 °F 30.7 °F 29.56 in WSW 6.7 mph 11.5 mph 67 % 0.00 in
03:41 40.8 °F 30.7 °F 29.57 in WSW 5.1 mph 11.5 mph 67 % 0.00 in
03:46 40.8 °F 30.7 °F 29.56 in WSW 8.8 mph 10.4 mph 67 % 0.00 in
03:51 40.7 °F 31.0 °F 29.56 in WSW 7.8 mph 9.2 mph 68 % 0.00 in
03:56 40.7 °F 31.0 °F 29.57 in WSW 6.1 mph 14.0 mph 68 % 0.00 in
04:01 40.7 °F 31.0 °F 29.57 in WSW 4.4 mph 6.0 mph 68 % 0.00 in
04:07 40.7 °F 31.0 °F 29.57 in West 7.3 mph 9.2 mph 68 % 0.00 in
04:12 40.7 °F 31.0 °F 29.57 in WSW 5.1 mph 8.1 mph 68 % 0.00 in
04:17 40.7 °F 31.0 °F 29.57 in SW 5.2 mph 8.0 mph 68 % 0.00 in
04:22 40.6 °F 30.9 °F 29.57 in SSW 7.5 mph 10.4 mph 68 % 0.00 in
04:27 40.7 °F 31.0 °F 29.57 in SW 8.0 mph 15.0 mph 68 % 0.00 in
04:32 40.7 °F 31.0 °F 29.57 in WSW 5.4 mph 11.5 mph 68 % 0.00 in
04:35 40.9 °F 31.1 °F 29.57 in SW 5.6 mph 12.7 mph 68 % 0.00 in
04:40 41.0 °F 31.2 °F 29.58 in West 7.2 mph 10.4 mph 68 % 0.00 in
04:45 41.1 °F 31.3 °F 29.58 in WSW 9.5 mph 19.6 mph 68 % 0.00 in
04:51 41.3 °F 31.9 °F 29.58 in WNW 4.5 mph 10.4 mph 69 % 0.00 in
04:56 41.4 °F 32.0 °F 29.58 in WNW 6.3 mph 6.9 mph 69 % 0.00 in
05:01 41.4 °F 32.0 °F 29.58 in West 7.5 mph 16.1 mph 69 % 0.00 in
05:06 41.4 °F 32.0 °F 29.57 in WSW 8.6 mph 13.8 mph 69 % 0.00 in
05:07 41.4 °F 32.0 °F 29.57 in WSW 9.7 mph 20.0 mph 69 % 0.00 in
05:12 41.4 °F 32.0 °F 29.58 in WSW 11.6 mph 17.3 mph 69 % 0.00 in
05:17 41.3 °F 31.9 °F 29.57 in West 5.9 mph 13.8 mph 69 % 0.00 in
05:22 41.2 °F 31.8 °F 29.57 in SW 8.9 mph 13.8 mph 69 % 0.00 in
05:27 41.1 °F 31.7 °F 29.57 in West 6.5 mph 11.5 mph 69 % 0.00 in
05:32 41.1 °F 32.1 °F 29.58 in SW 9.6 mph 16.1 mph 70 % 0.00 in
05:37 41.1 °F 32.1 °F 29.57 in WNW 6.6 mph 11.5 mph 70 % 0.00 in
05:42 41.2 °F 31.8 °F 29.58 in West 5.9 mph 8.1 mph 69 % 0.00 in
05:47 41.2 °F 31.8 °F 29.58 in WNW 6.2 mph 16.1 mph 69 % 0.00 in
05:52 41.2 °F 31.8 °F 29.58 in South 3.6 mph 8.0 mph 69 % 0.00 in
05:57 41.0 °F 31.2 °F 29.57 in WSW 6.8 mph 10.4 mph 68 % 0.00 in
06:02 40.9 °F 30.8 °F 29.57 in West 4.9 mph 15.0 mph 67 % 0.00 in
06:07 40.9 °F 30.4 °F 29.57 in SSW 5.1 mph 11.5 mph 66 % 0.00 in
06:12 40.7 °F 30.2 °F 29.58 in West 2.8 mph 10.4 mph 66 % 0.00 in
06:18 40.7 °F 30.2 °F 29.58 in SW 6.8 mph 11.5 mph 66 % 0.00 in
06:23 40.6 °F 30.1 °F 29.58 in WSW 8.5 mph 12.0 mph 66 % 0.00 in
06:28 40.6 °F 29.7 °F 29.58 in SW 6.3 mph 15.0 mph 65 % 0.00 in
06:33 40.6 °F 29.7 °F 29.58 in WSW 5.0 mph 9.2 mph 65 % 0.00 in
06:38 40.5 °F 29.7 °F 29.58 in WSW 6.7 mph 13.8 mph 65 % 0.00 in
06:43 40.5 °F 29.7 °F 29.58 in WSW 4.1 mph 9.2 mph 65 % 0.00 in
06:48 40.5 °F 29.7 °F 29.58 in West 7.4 mph 10.4 mph 65 % 0.00 in
06:53 40.5 °F 29.7 °F 29.58 in SW 9.7 mph 15.0 mph 65 % 0.00 in
06:58 40.5 °F 29.7 °F 29.58 in WSW 6.6 mph 10.0 mph 65 % 0.00 in
07:03 40.5 °F 29.7 °F 29.59 in WSW 6.0 mph 13.0 mph 65 % 0.00 in
07:08 40.4 °F 29.9 °F 29.59 in SW 8.9 mph 11.5 mph 66 % 0.00 in
07:14 40.4 °F 29.9 °F 29.59 in WSW 9.0 mph 14.0 mph 66 % 0.00 in
07:19 40.3 °F 29.8 °F 29.59 in WSW 10.0 mph 15.0 mph 66 % 0.00 in
07:24 40.3 °F 30.3 °F 29.59 in SW 6.0 mph 13.0 mph 67 % 0.00 in
07:29 40.4 °F 30.3 °F 29.59 in SW 6.0 mph 16.0 mph 67 % 0.00 in
07:34 40.5 °F 30.4 °F 29.60 in West 6.8 mph 12.7 mph 67 % 0.00 in
07:39 40.6 °F 30.5 °F 29.60 in WSW 8.0 mph 12.0 mph 67 % 0.00 in
07:44 40.8 °F 30.3 °F 29.60 in WSW 8.0 mph 16.0 mph 66 % 0.00 in
07:49 41.0 °F 30.5 °F 29.60 in WSW 10.0 mph 17.0 mph 66 % 0.00 in
07:54 41.1 °F 30.6 °F 29.60 in WSW 9.0 mph 15.0 mph 66 % 0.00 in
07:59 41.2 °F 30.3 °F 29.60 in WSW 8.1 mph 12.7 mph 65 % 0.00 in
08:04 41.3 °F 30.0 °F 29.60 in SW 5.8 mph 17.3 mph 64 % 0.00 in
08:09 41.3 °F 30.4 °F 29.60 in WSW 6.6 mph 9.2 mph 65 % 0.00 in
08:14 41.4 °F 30.5 °F 29.60 in WSW 6.8 mph 11.5 mph 65 % 0.00 in
08:19 41.4 °F 30.5 °F 29.60 in SW 6.1 mph 10.4 mph 65 % 0.00 in
08:24 41.4 °F 30.5 °F 29.60 in WNW 9.9 mph 15.0 mph 65 % 0.00 in
08:29 41.4 °F 30.5 °F 29.60 in WSW 7.7 mph 11.5 mph 65 % 0.00 in
08:34 41.4 °F 30.5 °F 29.61 in West 8.0 mph 11.5 mph 65 % 0.00 in
08:39 41.4 °F 30.5 °F 29.61 in West 6.7 mph 18.4 mph 65 % 0.00 in
08:44 41.5 °F 30.2 °F 29.61 in WSW 8.1 mph 18.4 mph 64 % 0.00 in
08:49 41.5 °F 30.6 °F 29.61 in West 8.4 mph 16.0 mph 65 % 0.00 in
08:51 41.5 °F 30.6 °F 29.61 in West 9.2 mph 16.1 mph 65 % 0.00 in
08:56 41.5 °F 30.2 °F 29.61 in West 5.8 mph 13.8 mph 64 % 0.00 in
09:01 41.5 °F 30.2 °F 29.61 in West 7.2 mph 13.8 mph 64 % 0.00 in
09:06 41.6 °F 30.3 °F 29.61 in WSW 9.5 mph 13.8 mph 64 % 0.00 in
09:11 41.5 °F 30.2 °F 29.61 in WNW 8.9 mph 23.0 mph 64 % 0.00 in
09:16 41.6 °F 30.3 °F 29.61 in NW 2.6 mph 11.5 mph 64 % 0.00 in
09:21 41.6 °F 30.3 °F 29.62 in WSW 4.6 mph 11.5 mph 64 % 0.00 in
09:26 41.7 °F 30.4 °F 29.62 in WNW 5.5 mph 20.7 mph 64 % 0.00 in
09:31 41.8 °F 30.1 °F 29.62 in WSW 4.2 mph 11.5 mph 63 % 0.00 in
09:36 41.8 °F 30.5 °F 29.61 in West 9.7 mph 18.4 mph 64 % 0.00 in
09:41 41.8 °F 30.1 °F 29.61 in West 7.6 mph 16.1 mph 63 % 0.00 in
09:46 41.8 °F 29.7 °F 29.61 in WNW 8.8 mph 14.0 mph 62 % 0.00 in
09:51 41.8 °F 30.1 °F 29.61 in WSW 4.2 mph 19.6 mph 63 % 0.00 in
09:56 41.8 °F 30.1 °F 29.62 in West 5.7 mph 16.1 mph 63 % 0.00 in
10:01 42.0 °F 30.7 °F 29.62 in West 6.2 mph 9.2 mph 64 % 0.00 in
10:07 42.7 °F 31.0 °F 29.62 in WSW 8.2 mph 17.3 mph 63 % 0.00 in
10:12 43.1 °F 30.6 °F 29.61 in SSW 7.1 mph 16.1 mph 61 % 0.00 in
10:17 43.5 °F 30.5 °F 29.61 in West 8.4 mph 13.8 mph 60 % 0.00 in
10:22 43.8 °F 30.8 °F 29.61 in WSW 7.8 mph 15.0 mph 60 % 0.00 in
10:27 43.9 °F 30.5 °F 29.61 in WSW 9.4 mph 19.6 mph 59 % 0.00 in
10:32 43.9 °F 30.5 °F 29.61 in West 6.3 mph 18.4 mph 59 % 0.00 in
10:37 43.4 °F 30.0 °F 29.61 in WSW 10.3 mph 19.6 mph 59 % 0.00 in
10:42 43.1 °F 29.3 °F 29.61 in SW 6.9 mph 13.8 mph 58 % 0.00 in
10:47 43.0 °F 29.2 °F 29.61 in West 11.1 mph 14.0 mph 58 % 0.00 in
10:52 43.0 °F 29.2 °F 29.61 in SW 10.4 mph 16.1 mph 58 % 0.00 in
10:57 42.9 °F 29.1 °F 29.61 in WSW 10.6 mph 20.7 mph 58 % 0.00 in
11:02 42.7 °F 29.8 °F 29.60 in West 7.1 mph 11.5 mph 60 % 0.00 in
11:07 42.7 °F 29.8 °F 29.60 in WSW 10.2 mph 16.1 mph 60 % 0.00 in
11:12 42.8 °F 29.9 °F 29.60 in WSW 7.9 mph 10.0 mph 60 % 0.00 in
11:17 43.1 °F 29.3 °F 29.59 in WSW 8.9 mph 18.0 mph 58 % 0.00 in
11:22 43.3 °F 29.1 °F 29.59 in WSW 7.0 mph 16.1 mph 57 % 0.00 in
11:27 43.5 °F 27.9 °F 29.59 in WNW 5.5 mph 15.0 mph 54 % 0.00 in
11:32 43.6 °F 28.0 °F 29.59 in West 8.1 mph 11.5 mph 54 % 0.00 in
11:38 43.5 °F 28.4 °F 29.58 in West 6.8 mph 11.5 mph 55 % 0.00 in
11:43 43.4 °F 28.3 °F 29.58 in West 6.4 mph 10.4 mph 55 % 0.00 in
11:48 43.2 °F 28.5 °F 29.58 in West 5.6 mph 15.0 mph 56 % 0.00 in
11:53 43.1 °F 28.9 °F 29.58 in West 12.4 mph 19.6 mph 57 % 0.00 in
11:58 42.9 °F 28.7 °F 29.57 in West 9.3 mph 18.4 mph 57 % 0.00 in
12:03 42.9 °F 29.1 °F 29.57 in WSW 4.4 mph 9.0 mph 58 % 0.00 in
12:08 43.0 °F 29.2 °F 29.57 in North 4.7 mph 12.0 mph 58 % 0.00 in
12:13 43.0 °F 28.4 °F 29.57 in SW 4.5 mph 11.5 mph 56 % 0.00 in
12:18 43.0 °F 28.4 °F 29.56 in SSW 4.2 mph 7.0 mph 56 % 0.00 in
12:23 42.9 °F 27.4 °F 29.56 in NW 7.8 mph 13.8 mph 54 % 0.00 in
12:28 42.9 °F 26.9 °F 29.56 in West 11.4 mph 15.0 mph 53 % 0.00 in
12:33 42.8 °F 27.3 °F 29.56 in West 4.3 mph 13.8 mph 54 % 0.00 in
12:38 42.7 °F 27.2 °F 29.56 in West 8.3 mph 20.0 mph 54 % 0.00 in
12:43 42.7 °F 26.3 °F 29.55 in West 9.6 mph 13.8 mph 52 % 0.00 in
12:48 42.7 °F 26.3 °F 29.55 in WNW 7.0 mph 18.4 mph 52 % 0.00 in
12:54 42.7 °F 25.8 °F 29.55 in WNW 6.7 mph 11.5 mph 51 % 0.00 in
12:59 42.7 °F 26.3 °F 29.55 in West 5.3 mph 10.0 mph 52 % 0.00 in
13:04 42.7 °F 25.8 °F 29.54 in West 8.0 mph 16.0 mph 51 % 0.00 in
13:09 42.8 °F 26.4 °F 29.54 in West 7.1 mph 7.1 mph 52 % 0.00 in
13:14 43.4 °F 25.9 °F 29.54 in West 7.0 mph 15.0 mph 50 % 0.00 in
13:19 43.8 °F 26.3 °F 29.54 in West 8.0 mph 14.0 mph 50 % 0.00 in
13:24 44.1 °F 25.1 °F 29.53 in WSW 10.6 mph 21.0 mph 47 % 0.00 in
13:29 43.9 °F 25.5 °F 29.54 in WNW 9.0 mph 16.0 mph 48 % 0.00 in
13:34 43.7 °F 25.3 °F 29.54 in WNW 7.0 mph 14.0 mph 48 % 0.00 in
13:39 43.6 °F 26.2 °F 29.53 in WNW 8.4 mph 12.7 mph 50 % 0.00 in
13:44 43.4 °F 26.9 °F 29.53 in West 5.0 mph 17.0 mph 52 % 0.00 in
13:49 43.4 °F 26.9 °F 29.53 in West 3.0 mph 13.0 mph 52 % 0.00 in
13:54 43.3 °F 27.3 °F 29.53 in SW 3.1 mph 9.2 mph 53 % 0.00 in
13:59 43.2 °F 27.2 °F 29.53 in WSW 4.1 mph 8.1 mph 53 % 0.00 in
14:04 43.1 °F 26.7 °F 29.53 in WNW 4.3 mph 11.5 mph 52 % 0.00 in
14:09 43.1 °F 26.7 °F 29.52 in WSW 7.9 mph 15.0 mph 52 % 0.00 in
14:14 43.1 °F 26.7 °F 29.52 in WNW 7.6 mph 12.7 mph 52 % 0.00 in
14:19 43.0 °F 26.6 °F 29.52 in WSW 5.4 mph 16.0 mph 52 % 0.00 in
14:24 43.0 °F 27.0 °F 29.52 in WNW 5.2 mph 9.2 mph 53 % 0.00 in
14:29 42.9 °F 26.5 °F 29.52 in West 7.1 mph 17.3 mph 52 % 0.00 in
14:35 42.8 °F 26.8 °F 29.52 in WSW 4.6 mph 12.7 mph 53 % 0.00 in
14:40 42.8 °F 26.4 °F 29.52 in SW 4.7 mph 9.2 mph 52 % 0.00 in
14:45 42.7 °F 26.7 °F 29.52 in WSW 6.4 mph 12.7 mph 53 % 0.00 in
14:50 42.6 °F 26.6 °F 29.52 in NW 6.3 mph 9.2 mph 53 % 0.00 in
14:55 42.6 °F 26.6 °F 29.52 in West 4.5 mph 10.4 mph 53 % 0.00 in
15:00 42.5 °F 26.1 °F 29.52 in WNW 4.3 mph 10.0 mph 52 % 0.00 in
15:05 42.4 °F 26.0 °F 29.52 in WNW 7.9 mph 15.0 mph 52 % 0.00 in
15:10 42.3 °F 26.8 °F 29.52 in West 4.4 mph 11.5 mph 54 % 0.00 in
15:15 42.3 °F 27.3 °F 29.53 in SW 7.1 mph 13.8 mph 55 % 0.00 in
15:20 42.2 °F 27.6 °F 29.53 in WSW 2.9 mph 6.0 mph 56 % 0.00 in
15:25 42.1 °F 27.9 °F 29.53 in NW 6.3 mph 11.5 mph 57 % 0.00 in
15:30 41.9 °F 27.8 °F 29.53 in SW 7.4 mph 11.5 mph 57 % 0.00 in
15:35 41.9 °F 28.2 °F 29.53 in SW 7.0 mph 10.4 mph 58 % 0.00 in
15:40 41.7 °F 28.0 °F 29.53 in West 5.8 mph 11.5 mph 58 % 0.00 in
15:45 41.6 °F 28.3 °F 29.53 in West 7.0 mph 13.8 mph 59 % 0.00 in
15:51 41.5 °F 27.8 °F 29.54 in WSW 4.7 mph 20.7 mph 58 % 0.00 in
15:56 41.5 °F 28.2 °F 29.54 in WSW 6.6 mph 6.9 mph 59 % 0.00 in
16:01 41.5 °F 28.6 °F 29.54 in West 5.8 mph 12.7 mph 60 % 0.00 in
16:06 41.5 °F 28.6 °F 29.54 in West 10.0 mph 15.0 mph 60 % 0.00 in
16:11 41.5 °F 28.6 °F 29.54 in WNW 6.8 mph 16.1 mph 60 % 0.00 in
16:16 41.5 °F 28.2 °F 29.54 in WSW 7.7 mph 16.1 mph 59 % 0.00 in
16:21 41.5 °F 27.8 °F 29.54 in West 6.9 mph 11.5 mph 58 % 0.00 in
16:26 41.5 °F 27.8 °F 29.54 in WNW 4.1 mph 6.9 mph 58 % 0.00 in
16:31 41.5 °F 27.8 °F 29.54 in WNW 4.1 mph 8.1 mph 58 % 0.00 in
16:36 41.5 °F 27.8 °F 29.54 in WSW 7.0 mph 9.2 mph 58 % 0.00 in
16:41 41.4 °F 27.3 °F 29.54 in WSW 6.0 mph 11.5 mph 57 % 0.00 in
16:46 41.4 °F 27.3 °F 29.54 in SSW 6.0 mph 10.4 mph 57 % 0.00 in
16:51 41.3 °F 27.2 °F 29.54 in WNW 8.3 mph 11.0 mph 57 % 0.00 in
16:56 41.3 °F 27.2 °F 29.54 in SW 6.4 mph 10.0 mph 57 % 0.00 in
17:01 41.3 °F 27.6 °F 29.54 in WNW 1.5 mph 12.7 mph 58 % 0.00 in
17:06 41.3 °F 27.6 °F 29.55 in WSW 6.2 mph 11.5 mph 58 % 0.00 in
17:11 41.2 °F 27.5 °F 29.55 in West 7.2 mph 11.5 mph 58 % 0.00 in
17:16 41.2 °F 28.4 °F 29.55 in SW 8.8 mph 14.0 mph 60 % 0.00 in
17:21 41.1 °F 28.7 °F 29.55 in WSW 6.2 mph 11.5 mph 61 % 0.00 in
17:26 41.0 °F 29.0 °F 29.55 in SW 7.9 mph 11.5 mph 62 % 0.00 in
17:31 40.9 °F 28.9 °F 29.55 in West 10.1 mph 12.7 mph 62 % 0.00 in
17:37 40.8 °F 28.8 °F 29.55 in WSW 8.0 mph 11.5 mph 62 % 0.00 in
17:46 40.8 °F 28.8 °F 29.55 in West 7.1 mph 11.0 mph 62 % 0.00 in
17:51 40.7 °F 29.1 °F 29.55 in WNW 2.3 mph 5.0 mph 63 % 0.00 in
17:55 40.7 °F 29.5 °F 29.55 in West 4.7 mph 9.2 mph 64 % 0.00 in
17:57 40.7 °F 29.5 °F 29.55 in WSW 6.3 mph 13.8 mph 64 % 0.00 in
18:01 40.7 °F 29.5 °F 29.55 in NW 5.7 mph 11.5 mph 64 % 0.00 in
18:06 40.6 °F 29.4 °F 29.55 in West 9.8 mph 16.1 mph 64 % 0.00 in
18:11 40.6 °F 29.4 °F 29.55 in WNW 4.9 mph 9.2 mph 64 % 0.00 in
18:16 40.5 °F 29.3 °F 29.55 in WSW 7.7 mph 12.7 mph 64 % 0.00 in
18:21 40.4 °F 29.2 °F 29.55 in WSW 4.9 mph 10.4 mph 64 % 0.00 in
18:26 40.4 °F 29.2 °F 29.55 in SSW 6.8 mph 10.4 mph 64 % 0.00 in
18:31 40.3 °F 29.1 °F 29.55 in WSW 6.3 mph 12.7 mph 64 % 0.00 in
18:36 40.2 °F 29.0 °F 29.55 in SSW 5.0 mph 10.0 mph 64 % 0.00 in
18:41 40.1 °F 28.9 °F 29.55 in West 4.9 mph 9.2 mph 64 % 0.00 in
18:51 40.0 °F 29.2 °F 29.55 in West 3.8 mph 10.4 mph 65 % 0.00 in
18:56 40.0 °F 29.2 °F 29.55 in West 5.3 mph 12.7 mph 65 % 0.00 in
19:01 40.0 °F 29.6 °F 29.55 in SW 6.4 mph 10.4 mph 66 % 0.00 in
19:03 40.0 °F 29.2 °F 29.55 in WNW 4.5 mph 8.1 mph 65 % 0.00 in
19:08 40.0 °F 29.2 °F 29.56 in SW 2.9 mph 7.0 mph 65 % 0.00 in
19:13 40.0 °F 29.2 °F 29.56 in West 3.7 mph 6.9 mph 65 % 0.00 in
19:18 40.0 °F 29.2 °F 29.56 in WSW 4.3 mph 7.0 mph 65 % 0.00 in
19:24 39.9 °F 28.7 °F 29.56 in West 5.2 mph 9.2 mph 64 % 0.00 in
19:29 39.9 °F 28.3 °F 29.57 in WSW 6.4 mph 11.5 mph 63 % 0.00 in
19:34 39.9 °F 28.3 °F 29.57 in West 6.0 mph 13.0 mph 63 % 0.00 in
19:39 40.0 °F 28.0 °F 29.57 in WNW 7.0 mph 18.0 mph 62 % 0.00 in
19:44 40.0 °F 28.4 °F 29.57 in WNW 7.0 mph 18.0 mph 63 % 0.00 in
19:49 40.0 °F 28.4 °F 29.57 in West 5.0 mph 10.0 mph 63 % 0.00 in
19:54 40.0 °F 28.8 °F 29.57 in West 10.0 mph 14.0 mph 64 % 0.00 in
19:59 39.8 °F 28.2 °F 29.57 in WSW 6.8 mph 17.0 mph 63 % 0.00 in
20:04 39.8 °F 28.2 °F 29.57 in West 7.0 mph 17.0 mph 63 % 0.00 in
20:09 39.8 °F 28.2 °F 29.57 in West 9.0 mph 14.0 mph 63 % 0.00 in
20:14 39.8 °F 27.8 °F 29.57 in West 7.0 mph 17.0 mph 62 % 0.00 in
20:19 39.8 °F 27.8 °F 29.57 in West 7.0 mph 15.0 mph 62 % 0.00 in
20:24 39.8 °F 27.8 °F 29.57 in West 9.0 mph 20.0 mph 62 % 0.00 in
20:29 39.7 °F 27.7 °F 29.57 in WSW 8.0 mph 17.0 mph 62 % 0.00 in
20:34 39.7 °F 27.7 °F 29.57 in WSW 8.8 mph 12.7 mph 62 % 0.00 in
20:39 39.6 °F 27.6 °F 29.57 in West 8.0 mph 14.0 mph 62 % 0.00 in
20:44 39.5 °F 27.9 °F 29.57 in West 7.0 mph 13.0 mph 63 % 0.00 in
20:49 39.4 °F 27.8 °F 29.57 in West 8.0 mph 13.0 mph 63 % 0.00 in
20:54 39.3 °F 27.7 °F 29.57 in West 7.0 mph 15.0 mph 63 % 0.00 in
20:59 39.2 °F 27.7 °F 29.57 in SSW 3.6 mph 11.5 mph 63 % 0.00 in
21:04 39.1 °F 27.6 °F 29.57 in West 6.6 mph 13.8 mph 63 % 0.00 in
21:09 39.1 °F 27.6 °F 29.57 in WSW 7.9 mph 13.8 mph 63 % 0.00 in
21:14 39.1 °F 27.6 °F 29.58 in SW 9.0 mph 12.7 mph 63 % 0.00 in
21:19 39.2 °F 28.0 °F 29.57 in SW 7.8 mph 11.5 mph 64 % 0.00 in
21:24 39.2 °F 27.7 °F 29.58 in WNW 7.1 mph 12.7 mph 63 % 0.00 in
21:29 39.2 °F 28.0 °F 29.57 in WSW 8.9 mph 12.7 mph 64 % 0.00 in
21:34 39.3 °F 28.5 °F 29.57 in WSW 8.9 mph 12.7 mph 65 % 0.00 in
21:39 39.2 °F 28.4 °F 29.57 in West 4.9 mph 8.1 mph 65 % 0.00 in
21:44 39.2 °F 28.4 °F 29.57 in WSW 2.9 mph 6.0 mph 65 % 0.00 in
21:49 39.0 °F 28.6 °F 29.57 in West 4.8 mph 11.5 mph 66 % 0.00 in
21:54 38.8 °F 28.4 °F 29.57 in WNW 8.4 mph 15.0 mph 66 % 0.00 in
21:59 38.7 °F 28.7 °F 29.58 in WSW 9.5 mph 13.8 mph 67 % 0.00 in
22:04 38.6 °F 28.6 °F 29.57 in SW 5.6 mph 9.2 mph 67 % 0.00 in
22:09 38.5 °F 28.1 °F 29.57 in SW 5.9 mph 10.4 mph 66 % 0.00 in
22:16 38.3 °F 28.3 °F 29.58 in West 5.6 mph 11.5 mph 67 % 0.00 in
22:22 38.2 °F 28.2 °F 29.57 in WSW 6.5 mph 11.5 mph 67 % 0.00 in
22:24 38.2 °F 28.6 °F 29.58 in WNW 5.3 mph 12.7 mph 68 % 0.00 in
22:27 38.2 °F 28.6 °F 29.58 in West 7.7 mph 11.5 mph 68 % 0.00 in
22:32 38.1 °F 28.1 °F 29.58 in WSW 4.3 mph 15.0 mph 67 % 0.00 in
22:37 38.1 °F 28.1 °F 29.58 in WSW 8.3 mph 17.3 mph 67 % 0.00 in
22:43 38.0 °F 28.0 °F 29.58 in West 8.9 mph 12.0 mph 67 % 0.00 in
22:48 38.0 °F 28.0 °F 29.58 in WSW 8.1 mph 11.5 mph 67 % 0.00 in
22:53 38.0 °F 28.0 °F 29.58 in WSW 5.9 mph 10.4 mph 67 % 0.00 in
22:58 38.0 °F 28.0 °F 29.58 in WSW 7.8 mph 15.0 mph 67 % 0.00 in
23:03 38.1 °F 28.1 °F 29.58 in West 4.7 mph 13.8 mph 67 % 0.00 in
23:08 38.1 °F 28.1 °F 29.59 in SW 6.7 mph 10.4 mph 67 % 0.00 in
23:13 38.2 °F 27.8 °F 29.59 in WSW 7.1 mph 11.5 mph 66 % 0.00 in
23:18 38.2 °F 27.8 °F 29.59 in SW 7.2 mph 20.0 mph 66 % 0.00 in
23:23 38.3 °F 27.9 °F 29.59 in WSW 5.7 mph 11.5 mph 66 % 0.00 in
23:28 38.3 °F 27.6 °F 29.58 in WSW 10.6 mph 16.1 mph 65 % 0.00 in
23:33 38.3 °F 27.6 °F 29.58 in WSW 10.3 mph 12.7 mph 65 % 0.00 in
23:38 38.3 °F 27.6 °F 29.58 in West 8.0 mph 12.7 mph 65 % 0.00 in
23:43 38.2 °F 27.1 °F 29.58 in WSW 11.5 mph 18.4 mph 64 % 0.00 in
23:48 38.2 °F 26.7 °F 29.58 in WSW 8.8 mph 20.0 mph 63 % 0.00 in
23:53 38.2 °F 26.7 °F 29.58 in WSW 7.7 mph 10.4 mph 63 % 0.00 in
23:58 38.2 °F 27.1 °F 29.58 in SW 8.7 mph 16.0 mph 64 % 0.00 in
Crab Meadow Weather
Compliments of Weather Underground - 3 mb

Script developed by  Jim McMurry - jmcmurry@mwt.net Adapted for the template by  Wim van der Kuil - Leuven-Template.eu

Extremes: The greatest annual rainfall in the United States was 184.56 inches at Wynooches, Oxbow, Washington in 1931.